Other Public Products
Issued by NWS Grand Forks, ND

Home | Current Version | Previous Version | Text Only | Print | Product List | Glossary On
Versions: 1 2 3 4 5 6 7 8 9 10 11 12 13 14 15 16 17 18 19 20 21 22 23 24 25 26 27 28 29 30 31 32 33 34 35 36 37 38 39 40 41 42 43 44 45 46 47 48 49 50
000
FPUS83 KFGF 162231
OPUFGF
PRAIRIE TO PINES WEATHER ROUNDUP
NATIONAL WEATHER SERVICE EASTERN NORTH DAKOTA/GRAND FORKS ND
400 PM CST MON JAN 16 2017

 **SATELLITE DATA USED TO AUGMENT SKY COVER AT AUTOMATED STATIONS**
 *****  WEATHER ACROSS EASTERN NORTH DAKOTA  *****

CITY           SKY/WX    TMP DP  RH WIND       PRES   REMARKS
GRAND FORKS    FAIR      19  11  70 W6        30.04R WCI  11
GRAND FORKS AF FAIR      21  12  67 NW8       30.04R WCI  11
GRAND CITY NWS NOT AVBL
BUXTON           N/A     17  10  74 W5          N/A  WCI  10
DEVILS LAKE    FAIR      16  12  84 W5        30.02R WCI   9
FARGO          FAIR      19  11  70 SW3       30.04F
WAHPETON ARPT  FAIR      21  14  73 CALM      30.05F
$$

 *****  WEATHER ACROSS CENTRAL AND WESTERN NORTH DAKOTA  *****

CITY           SKY/WX    TMP DP  RH WIND       PRES   REMARKS
JAMESTOWN      FAIR      17  11  77 W10       30.02R WCI   5
BISMARCK       FAIR      27  17  66 NW8       30.07R WCI  19
MINOT          FAIR      28  21  75 W7        30.03S WCI  21
MINOT AFB      FAIR      24  19  78 NW14      30.02S WCI  12
GARRISON         N/A     21  15  78 NW13      30.04R WCI   9
WILLISTON      FAIR      19  13  77 SW5       30.11R WCI  12
DICKINSON      FAIR      21  14  74 W12       30.04R WCI   9
HETTINGER      FAIR      22  15  75 NW15      30.07R WCI   9
$$

 *****  OTHER OBSERVATIONS NORTHEAST NORTH DAKOTA  *****

CITY           SKY/WX    TMP DP  RH WIND       PRES   REMARKS
WALHALLA       NOT AVBL
LANGDON        NOT AVBL
CAVALIER         N/A     18   9  68 CALM      30.04S
GRAFTON        FAIR      18  10  73 CALM      30.07R
CANDO          NOT AVBL
FORT TOTTEN      N/A     24  13  63 W3        29.95S
ROLLA            N/A    N/A N/A N/A MISG        N/A
RUGBY            N/A     14  10  85 CALM      30.03R
 ***** THE ABOVE OBSERVATIONS ARE NON NWS ARE NOT QUALITY
        CONTROLLED AND MAY MIS-REPORT RAIN FOR SNOW...
$$

 *****  OTHER OBSERVATIONS SOUTHEAST NORTH DAKOTA *****

CITY           SKY/WX    TMP DP  RH WIND       PRES   REMARKS
COOPERSTOWN    FAIR      16  10  79 NW9       30.02F WCI   4
VALLEY CITY    FAIR      16  14  93 W10       30.04S WCI   3
OAKES          NOT AVBL
GWINNER        FAIR      23  14  68 NW9       30.03S WCI  13
SHEYENNE NWR     N/A     24  10  55 N7        29.95S WCI  16
BUFFALO          N/A     16   8  68 W9          N/A  WCI   5
WYNDMERE         N/A     21  14  73 NW3         N/A
 ***** THE ABOVE OBSERVATIONS ARE NON NWS ARE NOT QUALITY
       CONTROLLED AND MAY MIS-REPORT RAIN FOR SNOW...
$$

  *****  WEATHER ACROSS NORTHERN MINNESOTA  *****

CITY           SKY/WX    TMP DP  RH WIND       PRES   REMARKS
FLAG ISLAND    FAIR      18   9  68 SE3       30.03R
WARROAD        FAIR      18  10  73 CALM      30.04R
ROSEAU         FAIR      18  10  73 CALM      30.04R
HALLOCK        FAIR      10   7  85 S6        30.05R WCI   1
THF RVR FALLS  FAIR      18  10  71 SW5       30.04R WCI  11
HALSTAD          N/A     15   9  74 W3          N/A
FOSSTON        FAIR      21  12  68 SW8       30.02R WCI  12
BAUDETTE       FAIR      25  13  60 CALM      30.01R
WASKISH        FAIR      25  16  68 CALM      30.01S
CROOKSTON      FAIR      14  10  85 SW3       30.06R
$$
  *****  WEATHER ACROSS CENTRAL AND WEST MINNESOTA  *****

CITY           SKY/WX    TMP DP  RH WIND       PRES   REMARKS
BEMIDJI        FAIR      27  19  69 SE3       30.00S
PARK RAPIDS    FAIR      30  18  60 NE3       29.99F
WADENA         FAIR      25  18  74 SE5       30.02R WCI  19
DETROIT LAKES  FAIR      28  18  64 CALM      30.01F
MOORHEAD       FAIR      18   9  68 CALM      30.05F
FERGUS FALLS   FAIR      19  14  79 SW5       30.08R WCI  13
ELBOW LAKE     FAIR      25  19  77 CALM      30.04S HAZE
MORRIS MN      FAIR      27  19  74 CALM      30.03S
STAPLES        FAIR      23  16  74 CALM      30.03R
WHEATON        FAIR      25  21  86 CALM      30.07S
$$
  *****  WEATHER ELSEWHERE ACROSS MINNESOTA  *****

CITY           SKY/WX    TMP DP  RH WIND       PRES   REMARKS
DULUTH         FAIR      32  19  58 S5        30.03S
INTRNTL FALLS  FAIR      28  15  58 NE5       30.02S WCI  23
ELY            FAIR      32  21  64 SW3       30.02S
CLOQUET        FAIR      32  16  51 S3        30.04S
BRAINERD       FAIR      29  18  63 S7        30.03S WCI  22
HIBBING        FAIR      29  18  63 SE3       30.02F
ALEXANDRIA     FAIR      30  19  63 CALM      30.02S
SAINT CLOUD    FAIR      28  25  88 CALM      30.04S FOG
MINNEAPOLIS    CLOUDY    31  22  69 E6        30.05S
$$

  *****  WEATHER ACROSS SOUTH DAKOTA  *****

CITY           SKY/WX    TMP DP  RH WIND       PRES   REMARKS
SIOUX FALLS    FRZ RAIN  32  28  85 N5        29.97F
BROOKINGS      NOT AVBL
WATERTOWN      FAIR      24  19  81 N7        29.99R WCI  16
HURON          FAIR      20  12  71 NW6       30.04R WCI  12
SISSETON         N/A     23  19  85 SE3       30.04R
ABERDEEN       FAIR      20   8  60 N7        30.04R WCI  11
MITCHELL       CLOUDY    28  21  75 NW13      30.03S WCI  17
PIERRE         FAIR      22  14  71 NW13      30.05S WCI  10
MOBRIDGE       FAIR      21  10  62 NW3       30.04R
RAPID CITY     FAIR      33  19  56 N18       30.04S WCI  22
$$

  *****  SOME WEATHER IN NEARBY STATES *****

CITY           SKY/WX    TMP DP  RH WIND       PRES   REMARKS
GLASGOW MT     FAIR      17   9  70 CALM      30.08F HAZE
GREAT FALLS MT FAIR      34  20  56 S18       29.99F WCI  23
CHEYENNE WY    FAIR      35   8  32 N12       30.04R
SCOTTSBLUFF NE FAIR      41  19  41 N13       30.06R
OMAHA NE       CLOUDY    35  31  85 N10       29.90R FOG
DES MOINES IA  DRZL/FOG  34  33  96 NE5       29.89S VSB 3/4
DAVENPORT IA   RAIN      36  35  96 E12       29.95S FOG
CHICAGO IL     LGT RAIN  36  35  96 E8        30.05F FOG
EAU CLAIRE WI  CLOUDY    30  16  56 NE7       30.06F WCI  23
LA CROSSE WI   RAIN      35  31  85 N3        30.03F FOG
$$

  *****  SOME NATIONAL WEATHER *****

CITY           SKY/WX    TMP DP  RH WIND       PRES   REMARKS
LA GUARDIA NY  MOCLDY    43  23  45 SW10      30.34F
RALEIGH NC     CLOUDY    50  32  50 SE5       30.36S
ATLANTA GA     MOCLDY    71  52  50 S9        30.22S
NEW ORLEANS LA PTSUNNY   75  66  73 S16       30.10R
OKLAHOMA CITY  PTSUNNY   49  35  58 W16       29.96R
ALBUQUERQUE NM PTSUNNY   47  35  63 CALM      29.97S
SALT LAKE CITY FAIR      30  19  63 W7        30.26S WCI  23
LOS ANGELES CA FAIR      60  51  72 W14       30.03F
BOISE ID       FAIR      13   6  74 VRB3      30.44S HAZE
SEATTLE WA     PTSUNNY   42  33  70 W5        30.06F
$$

*** WEATHER ACROSS MANITOBA...SASKATCHEWAN AND ONTARIO ***
                ***ONTARIO***

CITY           SKY/WX    TMP DP  RH WIND       PRES   REMARKS
GERALDTON      MOCLDY    25  18  74 E6        30.09R WCI  18
THUNDER BAY    PTCLDY    27  18  69 E7        30.08R WCI  19
SIOUX LOOKOUT  PTCLDY    25  14  63 VRB2      30.02S
TORONTO        MOCLDY    34  19  55 VRB2      30.25S
BIG TROUT LK   CLOUDY    18  16  93 SE7       30.06S WCI   8
PICKLE LAKE    CLOUDY    19  18  93 S6        30.04F WCI  11
DRYDEN         MOCLDY    21  14  73 E3        30.01R
KENORA         PTCLDY    21  12  68 S5        30.01S WCI  15
$$
                *** MANITOBA***

CITY           SKY/WX    TMP DP  RH WIND       PRES   REMARKS
BRANDON        PTCLDY    21  16  79 W10       30.01S WCI  10
DAUPHIN        CLEAR     30  23  74 W15       29.98S WCI  19
ISLAND LAKE    PTCLDY    23  21  93 SE8       29.96F WCI  14
PILOT MOUND      N/A     21  12  68 NW7         N/A  WCI  13
THE PAS        MOCLDY    27  18  69 S8        29.83F WCI  18
THOMPSON       LGT SNOW  23  21  93 S7        29.81F WCI  15
WINNIPEG       PTCLDY    16  10  79 N3        30.04R
LYNN LAKE      MOCLDY    27  25  93 S8        29.63F WCI  18
CHURCHILL      FLURRIES   3   0  85 S18G25    29.77F WCI -17
GILLAM         FLURRIES  12   9  85 S9        29.88F WCI   0
$$
                ***SASKATCHEWAN***

CITY           SKY/WX    TMP DP  RH WIND       PRES   REMARKS
ESTEVAN        PTCLDY    18  14  86 SW8       30.06S WCI   7
KINDERSLEY     PTSUNNY   23  16  74 S14       29.85F WCI  11
LLOYDMINSTER   CLOUDY    34  19  55 SW13      29.72F WCI  25
PRINCE ALBERT  MOCLDY    28  19  69 SW8       29.83F WCI  20
REGINA         PTCLDY    23  18  80 SE9       30.01F WCI  13
YORKTON        CLEAR     28  21  74 S7        29.98S WCC1F1C2F2C3F3C4F4C5F5C6F6C7F7C8F8C9F9CaFaCbFbCcFcCdFdCe!


USA.gov is the U.S. government's official web portal to all federal, state and local government web resources and services.